Fort Myers, FL

5:30 PM EDT on May 25, 2017 (GMT -0400)
Page

Weather History for KFMY - March, 2013

Change the Weather History Date:

Sunday, March 10, 2013

  Actual Average Record
Temperature  
Mean Temperature 69 °F 69 °F  
Max Temperature 81 °F 80 °F 90 °F (1997)
Min Temperature 56 °F 59 °F 40 °F (1914)
Degree Days  
Heating Degree Days 0 1  
Month to date heating degree days 53 10  
Since 1 July heating degree days 169 270  
Cooling Degree Days 4 5  
Month to date cooling degree days 4 50  
Year to date cooling degree days 315 235  
Growing Degree Days 18 (Base 50)    
Moisture  
Dew Point 52 °F    
Average Humidity 58    
Maximum Humidity 83    
Minimum Humidity 35    
Precipitation  
Precipitation 0.00 in 0.11 in 1.44 in (1986)
Month to date precipitation 0.11 0.92  
Year to date precipitation 2.59 5.01  
Sea Level Pressure  
Sea Level Pressure 30.11 in    
Wind  
Wind Speed 8 mph (ESE)    
Max Wind Speed 18 mph    
Max Gust Speed 25 mph    
Visibility 10 miles    
Events      
T = Trace of Precipitation, MM = Missing Value Source: NWS Daily Summary

Daily Weather History Graph

Daily Weather History Graph

Search for Another Location

Airport or City:

Trip Planner

Search our weather history database for the weather conditions in past years. The results will help you decide how hot, cold, wet, or windy it might be!

Date:

Astronomy

Mar. 10, 2013 Rise Set
Actual Time 7:41 AM EDT 7:33 PM EDT
Civil Twilight 7:18 AM EDT 7:56 PM EDT
Nautical Twilight 6:51 AM EDT 8:23 PM EDT
Astronomical Twilight 6:25 AM EDT 8:50 PM EDT
Moon 6:37 AM EDT (3/10) 6:41 PM EDT (3/10)
Length of Visible Light 12h 38m
Length of Day
11h 51m
Waning Crescent, 2% of the Moon is Illuminated
Mar 10
Waning Crescent
Mar 11
New
Mar 19
First Quarter
Mar 27
Full
Apr 3
Last Quarter

Hourly Weather History & Observations

Time (EDT) Temp. Dew Point Humidity Pressure Visibility Wind Dir Wind Speed Gust Speed Precip Events Conditions
12:53 AM 61.0 °F 51.1 °F 70% 30.17 in 10.0 mi East 4.6 mph - N/A   Clear
1:53 AM 60.1 °F 51.1 °F 72% 30.13 in 10.0 mi East 6.9 mph - N/A   Clear
3:53 AM 60.1 °F 52.0 °F 75% 30.12 in 10.0 mi East 5.8 mph - N/A   Clear
5:53 AM 57.0 °F 51.1 °F 81% 30.12 in 10.0 mi Calm Calm - N/A   Clear
6:53 AM 55.9 °F 50.0 °F 80% 30.13 in 10.0 mi ENE 5.8 mph - N/A   Clear
7:53 AM 57.0 °F 51.1 °F 81% 30.14 in 10.0 mi East 4.6 mph - N/A   Clear
8:53 AM 60.1 °F 51.1 °F 72% 30.15 in 10.0 mi East 4.6 mph - N/A   Clear
9:53 AM 64.9 °F 53.1 °F 65% 30.15 in 10.0 mi East 5.8 mph - N/A   Clear
10:53 AM 72.0 °F 51.1 °F 48% 30.15 in 10.0 mi East 12.7 mph - N/A   Clear
11:53 AM 73.9 °F 50.0 °F 43% 30.15 in 10.0 mi East 10.4 mph - N/A   Clear
12:53 PM 77.0 °F 50.0 °F 39% 30.12 in 10.0 mi ESE 13.8 mph 25.3 mph N/A   Clear
1:53 PM 78.1 °F 50.0 °F 37% 30.08 in 10.0 mi ESE 15.0 mph - N/A   Clear
2:53 PM 80.1 °F 50.0 °F 35% 30.07 in 10.0 mi ESE 17.3 mph 21.9 mph N/A   Clear
3:53 PM 79.0 °F 50.0 °F 36% 30.06 in 10.0 mi ESE 12.7 mph 20.7 mph N/A   Clear
4:53 PM 81.0 °F 50.0 °F 34% 30.05 in 10.0 mi ESE 10.4 mph 18.4 mph N/A   Clear
5:53 PM 79.0 °F 50.0 °F 36% 30.04 in 10.0 mi East 9.2 mph - N/A   Partly Cloudy
6:53 PM 77.0 °F 51.1 °F 40% 30.05 in 10.0 mi ESE 6.9 mph - N/A   Mostly Cloudy
7:09 PM 73.4 °F 55.4 °F 53% 30.05 in 10.0 mi SSW 6.9 mph - N/A   Mostly Cloudy
7:53 PM 70.0 °F 57.9 °F 65% 30.07 in 10.0 mi SW 6.9 mph - N/A   Overcast
8:53 PM 68.0 °F 57.9 °F 70% 30.09 in 10.0 mi SW 3.5 mph - N/A   Overcast
10:53 PM 66.9 °F 54.0 °F 63% 30.12 in 10.0 mi East 8.1 mph 16.1 mph N/A   Overcast
11:53 PM 64.9 °F 54.0 °F 68% 30.12 in 10.0 mi ESE 6.9 mph - N/A   Clear
12:53 AM 63.0 °F 55.0 °F 75% 30.10 in 10.0 mi ESE 6.9 mph - N/A   Clear